Find Starlink 4170

NORAD ID: 53140 Int'l Des: 2022-083 Owner: SPXS Country: US Constellation: starlink operational
LEOCIRCULAR

当前视图

正在加载3D地球...

About Starlink 4170

Starlink 4170 (NORAD 53140) is a starlink constellation satellite (v1.5) launched Jul 17, 2022 by SPXS of US. It operates in LEO, CIRCULAR orbit with a mass of 297.00 kg.

即将过境

Passes for default location (London). Set your location on the main map for personalized predictions.

高度历史

Loading altitude history...

两行轨道根数

1 53140U 22083J 26265.54446259 -.00000789 00000-0 -11722-4 0 9991
2 53140 53.1609 356.5675 0001136 94.5698 265.5435 15.35401736231122
Epoch: Sep 22, 2026 • Age: 16 hours

当前状态

高度 465.5 km
远地点 / 近地点 N/A
速度 7.64 km/s
星下点 53.30°N, 6.88°E
发射日期 Jul 17, 2022
运行时间 4.1 years
类型 internet

技术详情

分类 Payload
质量 297.00 kg
干质量 275.00 kg
长度 0.20 m
跨度 9.00 m
形状 ? Box + pan
制造商 SPXS
平台类型 Starlink
阶段状态 In Orbit
所有者/国家 SPXS/US

Most Searched